Погода в Кинелахте

Россия / Республика Карелия     61°23′15″N   32°35′30″E
В апреле 2022 года жителям России запретили посещать сайт meteo.paraplan.net по решению Генеральной прокуратуры. Аудитория сайта уменьшилась в 10 раз. Владельцы сайта не видят смысла в поддержке погодного сервера в таких условиях. Сайт будет закрыт в октябре.
темп.,
°C
ветер,
м/с
пор.,
м/с
влажн.,
%
обл.,
%
осадки,
мм/ч
давл.,
гПа
погр.,
м
5 октября, ср
ср500:00+7всв249737 0.0 100878
03:00+7в2896100 0.0 1008311
06:00+7юв379465 0.0 1009366
09:00+6юв259376 0.0 1009252
12:00+9ююв248474 0.0 1010606
15:00+8ю368998 0.3 1010562
18:00+8ю379699 0.0 1011392
21:00+8ю259965 0.1 1011233
6 октября, чт
чт600:00+6ю289992 0.0 1011235
03:00+8ю3109596 0.0 1010441
06:00+7ююв4129894 0.0 1009395
09:00+8ю51397100 0.0 1006588
12:00+9ю61397100 0.1 1004729
15:00+10ююз61397100 0.3 1002857
18:00+11ююз61496100 1.8 999872
21:00+10з61289100 5.7 10001102
7 октября, пт
пт700:00+10зюз5118769 2.0 1002683
03:00+8зюз5129188 2.1 1003758
06:00+9зюз5108697 0.1 1005886
09:00+9з61288100 0.1 1006774
12:00+10з6127817 0.4 10071224
15:00+11з6127647 0.5 10101130
18:00+9зюз41180100 0.0 1011628
21:00+9юз4129295 0.0 1011650
8 октября, сб
сб800:00+10юз51390100 0.8 1010877
03:00+10юз61491100 0.9 1009995
06:00+11юз61388100 0.0 1008940
09:00+10ююз61288100 0.0 1007830
12:00+10ююз6137892 0.0 1006863
15:00+11ююз6137499 0.0 1005966
18:00+10ююз6137677 0.0 1003996
21:00+10ююз71580100 0.3 10011411
9 октября, вс
вс900:00+10юз51189100 1.2 1001788
03:00+9юз41090100 1.4 1002664
06:00+9зюз5108799 0.1 1002727
09:00+9юз51087100 0.6 1003948
12:00+10зюз497611 0.3 1004982
15:00+10зюз510750 0.3 1006988
18:00+8зюз411770 0.0 1007562
21:00+7юз3991100 0.0 1008281